COSMOS 2251 DEB, 34064

Orbit data source: Space-Track

COSMOS 2251 DEB, 34064 is space debris in LEO originally from a launch on Wed, 16 Jun 1993 UTC launched from the Plesetsk Missile And Space Complex (PKMTR). The debris from Iridium 33, an American commercial communications satellite, has been tracked extensively since its accidental collision with the defunct Russian satellite Cosmos 2251 in 2009. This event, occurring at high speed in low Earth orbit (LEO), generated thousands of pieces of space debris, significantly increasing the risk of further collisions. The Iridium 33 debris cloud has impacted space traffic management and orbital debris mitigation strategies, making it a subject of ongoing study in space situational awareness.

Loading next visibility...
Identifier
34064, 1993-036KB
Orbit
LEO
Country
Flag of CISCIS
Related business
Manufacturer
Unknown
Mission
Spacecraft
Bus & Motor
Unknown
Mass
Unknown
Launch date (UTC)
1993-06-16 (32 years ago)
Launch vehicle
Unknown
Launch site
Plesetsk Missile And Space Complex (PKMTR)
Object type
Payload
Rocket body
Debris
Shape & HBR
Unknown shape, 0.1 m
Radar Cross Section
Small (<0.1 m²)

Expand to show TLE details & history
Last TLE update: 7 hours ago

TLE from 7 hours ago
0 COSMOS 2251 DEB
1 34064U 93036KB  25300.26978185  .00001815  00000-0  55862-3 0  9998
2 34064  74.0345 357.0646 0020490  76.7858 349.8711 14.42115216874727
Epoch: 2025-10-27T06:28Z
TLE epoch observation values (Epoch: 2025-10-27T06:28:29.151Z)
Latitude
62.04393°
Longitude
-103.50705°
Altitude
747.412 km
Speed
7.495 km/s
True Right ascension
01h 57m 57s
True Declination
61° 54' 04"
Sunlit
Object was in full shadow at epoch
Visualization orbit readout
Latitude
Unknown
Longitude
Unknown
Altitude
Unknown
Speed
Unknown
Apparent Right ascension
Unknown
Apparent Declination
Unknown
Sunlit
N/A
Visualization observer readout
Local Sidereal Time
08:25:12
Azimuth
Unknown
Elevation
Unknown
Doppler factor
Unknown
Orbital elements
Apogee altitude
763.739 km
Perigee altitude
734.532 km
Semi-major axis
7,127.273 km
Eccentricity
0.00205
Inclination
74.0345°
RAAN
357.0646°
Arg. of periapsis
76.7858°
True anomaly
349.8297°
Mean anomaly
349.8711°
Eccentric anomaly
349.85041°
Mean motion
3.6071 °/min
Orbital period
99.8 mins
BSTAR
0.00055862
Loading maneuver chart data...
Computing Atmospheric mass density...

Documentation

Showing up to 5 results
|